�N����,����,�~����,�C��,���x,�C��,����,���ϕ���,�ő�u�ԕ���,�ő厞����,���˗�,�I�_���x,�n�����x,�ő啗���N��,DTYPE
"20/10/26","00:10",0.0,8.3,91.7,1013.3,280.4,1.2,1.7,297.4,0.00,7.1,15.0,"00:09:12",1
"20/10/26","00:20",0.0,8.8,92.0,1013.5,310.7,1.7,2.6,322.6,0.00,7.6,15.2,"00:17:12",1
"20/10/26","00:30",0.0,9.1,92.0,1013.5,324.4,1.5,2.5,323.6,0.00,7.9,15.3,"00:29:28",1
"20/10/26","00:40",0.0,8.9,92.2,1013.8,306.3,1.7,2.2,315.1,0.00,7.7,15.3,"00:30:32",1
"20/10/26","00:50",0.0,9.1,92.5,1013.8,286.6,1.6,2.4,322.6,0.00,8.0,15.1,"00:47:28",1
"20/10/26","01:00",0.0,9.3,92.6,1014.0,313.2,1.7,2.9,335.6,0.00,8.2,15.1,"00:50:16",1
"20/10/26","01:10",0.0,9.3,92.8,1013.8,306.3,1.8,3.2,329.3,0.00,8.2,15.1,"01:06:32",1
"20/10/26","01:20",0.0,9.5,93.0,1013.8,300.3,1.7,3.4,327.2,0.00,8.5,15.2,"01:19:28",1
"20/10/26","01:30",0.0,9.8,93.1,1013.8,316.4,1.8,3.5,333.3,0.00,8.8,15.0,"01:21:44",1
"20/10/26","01:40",0.0,10.0,93.1,1013.5,315.5,2.0,3.9,318.3,0.00,9.0,14.8,"01:35:12",1
"20/10/26","01:50",0.0,10.0,93.0,1013.8,303.5,1.1,2.1,314.1,0.00,9.0,15.0,"01:40:40",1
"20/10/26","02:00",0.0,9.9,93.1,1013.8,306.6,1.5,2.5,332.0,0.00,8.9,15.2,"01:50:02",1
"20/10/26","02:10",0.0,9.6,93.2,1013.8,320.9,1.7,2.4,332.4,0.00,8.6,15.0,"02:00:48",1
"20/10/26","02:20",0.0,9.3,93.4,1013.3,318.0,1.8,2.5,321.7,0.00,8.3,15.1,"02:15:36",1
"20/10/26","02:30",0.0,9.3,93.5,1013.5,295.1,1.6,2.1,320.4,0.00,8.3,15.2,"02:23:52",1
"20/10/26","02:40",0.0,9.4,93.6,1013.0,307.6,1.7,2.7,307.2,0.00,8.5,15.0,"02:38:48",1
"20/10/26","02:50",0.0,9.4,93.5,1013.3,286.9,1.5,1.8,319.5,0.00,8.4,15.0,"02:46:48",1
"20/10/26","03:00",0.0,9.3,93.6,1013.5,313.4,1.5,2.7,319.6,0.00,8.4,14.9,"02:53:44",1
"20/10/26","03:10",0.0,9.0,93.6,1013.0,299.2,1.2,1.7,322.9,0.00,8.1,14.9,"03:04:16",1
"20/10/26","03:20",0.0,8.6,93.9,1013.5,291.2,1.2,1.8,330.2,0.00,7.7,14.8,"03:16:48",1
"20/10/26","03:30",0.0,9.2,94.1,1013.3,295.2,2.0,3.4,309.3,0.00,8.3,14.7,"03:28:08",1
"20/10/26","03:40",0.0,9.4,94.0,1013.5,283.8,1.6,2.9,314.7,0.00,8.5,14.6,"03:30:24",1
"20/10/26","03:50",0.0,9.5,94.0,1013.3,304.0,1.8,3.5,308.6,0.00,8.6,14.7,"03:41:28",1
"20/10/26","04:00",0.0,9.4,94.1,1013.3,311.6,1.8,2.8,313.9,0.00,8.5,14.7,"03:54:40",1
"20/10/26","04:10",0.0,9.3,94.0,1013.3,309.8,1.2,1.9,333.9,0.00,8.4,14.7,"04:00:40",1
"20/10/26","04:20",0.0,8.9,94.2,1013.3,296.6,1.3,2.5,319.5,0.00,8.1,14.5,"04:18:16",1
"20/10/26","04:30",0.0,8.8,94.3,1013.5,304.9,1.2,2.0,321.7,0.00,8.0,14.7,"04:29:52",1
"20/10/26","04:40",0.0,8.4,94.3,1013.3,296.9,1.2,1.6,293.4,0.00,7.6,14.7,"04:32:24",1
"20/10/26","04:50",0.0,8.1,94.6,1013.5,279.7,1.1,1.8,300.9,0.00,7.3,14.6,"04:48:48",1
"20/10/26","05:00",0.0,8.1,94.7,1013.5,275.1,1.2,1.8,289.1,0.00,7.3,14.6,"04:55:44",1
"20/10/26","05:10",0.0,8.4,94.7,1013.3,312.0,1.7,2.5,320.5,0.00,7.6,14.3,"05:04:40",1
"20/10/26","05:20",0.0,8.0,94.8,1012.8,309.4,1.7,2.2,319.9,0.00,7.3,14.4,"05:10:08",1
"20/10/26","05:30",0.0,8.2,94.9,1013.3,282.4,1.5,1.9,270.6,0.00,7.5,14.3,"05:27:52",1
"20/10/26","05:40",0.0,8.1,94.9,1013.3,297.5,1.5,2.4,317.3,0.00,7.4,14.1,"05:36:24",1
"20/10/26","05:50",0.0,8.0,95.0,1013.0,294.7,1.5,2.5,288.5,0.00,7.3,14.2,"05:48:32",1
"20/10/26","06:00",0.0,8.5,95.2,1013.5,291.0,1.8,3.4,308.8,0.00,7.8,14.2,"05:58:32",1
"20/10/26","06:10",0.0,8.8,95.1,1013.0,300.4,2.0,3.3,325.1,0.00,8.1,14.3,"06:08:48",1
"20/10/26","06:20",0.0,8.8,95.2,1013.3,311.4,2.5,3.9,326.4,0.00,8.1,14.2,"06:19:12",1
"20/10/26","06:30",0.0,9.1,95.1,1013.3,322.6,3.1,5.0,337.8,0.00,8.4,14.4,"06:20:32",1
"20/10/26","06:40",0.0,9.3,95.1,1013.0,321.9,2.6,4.8,326.9,0.00,8.6,14.2,"06:30:08",1
"20/10/26","06:50",0.0,9.2,95.1,1013.8,316.9,2.1,3.7,323.8,0.00,8.5,14.2,"06:42:56",1
"20/10/26","07:00",0.0,9.3,95.2,1013.8,325.2,1.7,2.6,338.2,0.00,8.6,14.2,"06:54:56",1
"20/10/26","07:10",0.0,9.6,95.2,1014.0,315.4,1.2,1.9,317.6,0.01,8.9,14.2,"07:04:32",1
"20/10/26","07:20",0.0,10.0,95.1,1014.5,328.3,1.1,2.1,315.7,0.02,9.3,14.3,"07:12:40",1
"20/10/26","07:30",0.0,10.3,94.9,1014.5,336.9,0.7,1.4,341.4,0.03,9.6,14.1,"07:28:40",1
"20/10/26","07:40",0.0,10.7,94.9,1014.5,327.2,1.0,1.6,315.3,0.03,10.0,14.4,"07:38:32",1
"20/10/26","07:50",0.0,11.7,94.7,1014.5,291.6,0.7,1.6,333.9,0.07,10.9,14.4,"07:49:44",1
"20/10/26","08:00",0.0,12.0,94.5,1014.9,306.5,0.8,1.7,321.4,0.05,11.2,14.6,"07:52:32",1
"20/10/26","08:10",0.0,12.5,94.2,1014.7,296.7,0.6,1.2,311.9,0.10,11.6,14.7,"08:07:44",1
"20/10/26","08:20",0.0,12.8,93.8,1015.2,333.4,0.8,1.8,341.6,0.14,11.9,14.6,"08:17:12",1
"20/10/26","08:30",0.0,13.1,92.7,1015.2,343.1,0.6,1.8,347.9,0.16,12.0,14.8,"08:22:08",1
"20/10/26","08:40",0.0,13.3,91.8,1015.4,336.2,0.5,0.9,28.7,0.18,12.0,15.1,"08:31:36",1
"20/10/26","08:50",0.0,13.6,90.3,1015.9,258.3,0.6,1.7,240.3,0.16,12.1,15.1,"08:48:08",1
"20/10/26","09:00",0.0,13.8,89.1,1015.6,269.2,0.5,1.0,254.9,0.15,12.1,15.2,"08:56:48",1
"20/10/26","09:10",0.0,14.4,86.4,1015.4,243.4,0.3,1.1,215.9,0.22,12.2,15.3,"09:04:40",1
"20/10/26","09:20",0.0,15.1,84.9,1015.4,302.0,0.7,1.6,322.2,0.26,12.6,15.5,"09:10:40",1
"20/10/26","09:30",0.0,15.2,82.0,1015.4,213.5,0.5,1.3,233.7,0.20,12.2,15.7,"09:20:02",1
"20/10/26","09:40",0.0,15.8,78.8,1015.2,251.2,0.6,1.3,232.9,0.32,12.2,15.7,"09:30:16",1
"20/10/26","09:50",0.0,16.7,75.9,1014.9,185.5,0.6,1.9,207.2,0.33,12.5,15.9,"09:43:36",1
"20/10/26","10:00",0.0,17.0,72.8,1014.5,230.8,0.6,1.6,238.4,0.35,12.1,16.0,"09:53:20",1
"20/10/26","10:10",0.0,18.0,69.8,1014.5,175.7,0.6,2.0,215.0,0.40,12.4,16.3,"10:01:36",1
"20/10/26","10:20",0.0,18.6,67.1,1014.2,182.5,0.7,2.4,200.7,0.42,12.4,16.5,"10:14:56",1
"20/10/26","10:30",0.0,19.1,64.4,1014.0,197.3,1.0,2.4,211.5,0.45,12.3,16.9,"10:29:52",1
"20/10/26","10:40",0.0,19.4,63.2,1013.8,237.8,2.1,4.8,217.0,0.47,12.3,17.0,"10:39:44",1
"20/10/26","10:50",0.0,19.5,62.9,1013.5,256.2,2.3,5.0,214.0,0.47,12.3,17.5,"10:40:08",1
"20/10/26","11:00",0.0,20.3,61.9,1013.3,245.3,1.8,4.2,200.4,0.51,12.8,17.4,"10:56:40",1
"20/10/26","11:10",0.0,20.5,60.0,1012.8,270.1,1.2,4.2,232.0,0.38,12.5,17.6,"11:00:16",1
"20/10/26","11:20",0.0,20.0,59.1,1013.0,268.6,1.8,6.0,229.1,0.34,11.8,17.6,"11:13:52",1
"20/10/26","11:30",0.0,20.0,61.0,1012.8,297.1,1.5,3.3,338.5,0.31,12.3,17.8,"11:28:40",1
"20/10/26","11:40",0.0,20.4,59.6,1012.6,301.5,2.0,3.4,348.3,0.45,12.3,18.1,"11:31:04",1
"20/10/26","11:50",0.0,19.5,59.1,1012.8,313.6,2.0,3.6,348.6,0.19,11.3,18.1,"11:49:20",1
"20/10/26","12:00",0.0,20.0,60.7,1012.8,329.7,1.7,4.2,328.1,0.35,12.2,18.1,"11:50:08",1
"20/10/26","12:10",0.0,21.1,56.3,1012.3,25.9,1.1,2.2,321.7,0.50,12.1,18.5,"12:06:00",1
"20/10/26","12:20",0.0,21.6,54.6,1012.1,283.2,1.3,3.3,359.2,0.41,12.1,18.4,"12:15:12",1
"20/10/26","12:30",0.0,20.1,58.0,1011.9,323.9,1.3,2.9,339.8,0.14,11.6,18.5,"12:25:44",1
"20/10/26","12:40",0.0,21.4,55.9,1011.9,295.4,1.1,3.2,339.4,0.49,12.3,18.8,"12:30:40",1
"20/10/26","12:50",0.0,22.1,51.6,1011.9,327.8,1.1,3.9,319.2,0.49,11.7,18.9,"12:49:28",1
"20/10/26","13:00",0.0,20.9,51.2,1011.9,350.1,2.2,5.1,343.5,0.29,10.5,19.1,"12:50:32",1
"20/10/26","13:10",0.0,21.8,51.1,1011.4,12.6,1.3,2.8,231.1,0.48,11.3,19.1,"13:00:02",1
"20/10/26","13:20",0.0,21.7,50.0,1011.4,347.1,1.6,3.9,342.5,0.39,10.9,19.2,"13:18:24",1
"20/10/26","13:30",0.0,20.2,54.4,1011.4,333.7,2.2,4.5,304.3,0.08,10.8,19.2,"13:22:32",1
"20/10/26","13:40",0.0,20.0,55.9,1011.2,330.4,1.7,3.1,0.6,0.16,11.0,19.3,"13:31:36",1
"20/10/26","13:50",0.0,21.6,52.0,1011.4,296.5,1.3,3.1,338.3,0.40,11.4,19.3,"13:44:00",1
"20/10/26","14:00",0.0,21.7,48.3,1011.2,319.3,1.5,3.2,316.8,0.26,10.4,19.5,"13:53:52",1
"20/10/26","14:10",0.0,19.7,53.9,1010.9,344.6,2.7,6.3,334.9,0.08,10.2,19.4,"14:01:20",1
"20/10/26","14:20",0.0,19.5,55.0,1011.4,334.0,2.1,4.5,344.0,0.07,10.3,19.2,"14:13:04",1
"20/10/26","14:30",0.0,19.9,55.8,1011.4,339.0,2.0,4.2,335.8,0.20,10.9,19.4,"14:27:36",1
"20/10/26","14:40",0.0,19.5,53.4,1011.2,326.6,2.2,4.8,357.0,0.04,9.8,19.1,"14:35:12",1
"20/10/26","14:50",0.0,20.2,54.4,1011.2,322.4,2.2,5.1,328.6,0.21,10.8,19.0,"14:48:40",1
"20/10/26","15:00",0.0,20.5,52.4,1011.4,327.5,1.8,4.4,345.3,0.14,10.5,19.1,"14:56:00",1
"20/10/26","15:10",0.0,20.5,51.7,1011.6,343.3,2.8,6.6,334.8,0.22,10.3,19.1,"15:09:20",1
"20/10/26","15:20",0.0,20.3,53.6,1011.9,335.9,3.0,5.8,343.5,0.20,10.6,19.1,"15:14:00",1
"20/10/26","15:30",0.0,20.3,53.2,1011.9,342.6,2.2,4.5,351.6,0.18,10.5,19.0,"15:27:52",1
"20/10/26","15:40",0.0,20.1,52.2,1011.6,334.0,2.7,4.3,334.3,0.14,10.0,19.1,"15:32:08",1
"20/10/26","15:50",0.0,19.9,52.2,1011.6,338.2,2.5,5.1,335.3,0.11,9.9,18.7,"15:48:00",1
"20/10/26","16:00",0.0,19.8,53.0,1012.1,343.1,1.8,4.2,337.9,0.08,10.0,19.0,"15:57:52",1
"20/10/26","16:10",0.0,19.3,53.1,1011.6,341.1,2.1,4.9,343.5,0.05,9.6,18.8,"16:08:24",1
"20/10/26","16:20",0.0,19.0,51.6,1011.6,347.9,2.0,3.9,339.3,0.04,8.9,18.8,"16:18:48",1
"20/10/26","16:30",0.0,18.8,53.0,1012.1,335.4,2.2,4.4,344.9,0.02,9.1,18.7,"16:26:24",1
"20/10/26","16:40",0.0,18.3,54.7,1012.3,329.6,2.3,3.9,347.7,0.01,9.1,18.6,"16:30:08",1
"20/10/26","16:50",0.0,17.6,58.0,1012.6,332.7,2.2,3.7,339.9,0.00,9.3,18.4,"16:48:56",1
"20/10/26","17:00",0.0,16.9,61.1,1012.6,334.0,2.3,4.8,332.4,0.00,9.4,18.2,"16:55:44",1
"20/10/26","17:10",0.0,16.5,63.3,1012.6,330.5,2.2,3.9,338.8,0.00,9.6,18.1,"17:04:16",1
"20/10/26","17:20",0.0,16.0,65.7,1012.3,331.5,2.5,3.9,338.3,0.00,9.6,18.0,"17:15:36",1
"20/10/26","17:30",0.0,15.4,67.8,1012.8,332.6,2.2,4.8,342.0,0.00,9.5,17.9,"17:21:52",1
"20/10/26","17:40",0.0,15.1,69.4,1012.8,328.6,2.1,3.4,335.9,0.00,9.6,17.8,"17:34:02",1
"20/10/26","17:50",0.0,15.0,70.7,1012.8,326.7,2.3,3.6,316.1,0.00,9.8,17.8,"17:44:24",1
"20/10/26","18:00",0.0,14.8,71.4,1012.8,313.2,2.2,3.4,309.3,0.00,9.7,17.9,"17:53:06",1
"20/10/26","18:10",0.0,14.5,72.4,1013.3,307.4,1.8,3.1,325.3,0.00,9.6,17.5,"18:01:20",1
"20/10/26","18:20",0.0,14.4,73.1,1013.0,324.3,2.0,3.2,317.9,0.00,9.7,17.5,"18:10:24",1
"20/10/26","18:30",0.0,14.1,74.3,1013.0,326.7,1.7,3.2,321.8,0.00,9.6,17.5,"18:28:58",1
"20/10/26","18:40",0.0,13.9,75.7,1013.0,324.6,2.2,3.5,335.4,0.00,9.7,17.5,"18:39:34",1
"20/10/26","18:50",0.0,13.7,76.8,1013.5,20.0,0.8,2.9,334.1,0.00,9.7,17.2,"18:40:10",1
"20/10/26","19:00",0.0,13.0,77.7,1013.5,284.9,1.0,1.7,309.2,0.00,9.2,17.0,"18:54:54",1
"20/10/26","19:10",0.0,12.5,78.9,1013.8,297.7,1.2,1.9,317.4,0.00,9.0,17.2,"19:08:56",1
"20/10/26","19:20",0.0,12.5,80.1,1013.8,340.8,1.0,1.7,338.3,0.00,9.2,17.0,"19:17:38",1
"20/10/26","19:30",0.0,12.4,81.2,1013.3,305.9,1.3,1.9,344.6,0.00,9.3,16.7,"19:28:24",1
"20/10/26","19:40",0.0,11.9,81.9,1013.5,304.3,1.2,1.7,316.6,0.00,9.0,16.9,"19:31:30",1
"20/10/26","19:50",0.0,11.7,83.0,1013.8,303.5,1.3,1.9,315.7,0.00,9.0,16.8,"19:43:24",1
"20/10/26","20:00",0.0,11.7,83.9,1013.5,317.5,1.3,2.0,337.3,0.00,9.1,16.5,"19:52:10",1
"20/10/26","20:10",0.0,11.3,84.8,1013.8,311.8,1.1,2.0,334.4,0.00,8.9,16.5,"20:02:34",1
"20/10/26","20:20",0.0,11.1,85.5,1013.5,307.4,1.2,2.1,337.3,0.00,8.8,16.3,"20:11:36",1
"20/10/26","20:30",0.0,11.2,86.4,1013.5,309.7,1.5,2.5,320.8,0.00,9.1,16.2,"20:27:38",1
"20/10/26","20:40",0.0,11.1,87.0,1014.2,312.7,1.6,2.2,338.7,0.00,9.1,16.3,"20:33:36",1
"20/10/26","20:50",0.0,11.0,87.6,1013.8,302.3,1.3,1.8,318.8,0.00,9.1,16.0,"20:41:52",1
"20/10/26","21:00",0.0,10.9,88.1,1013.8,315.5,1.2,1.8,334.8,0.00,9.0,15.9,"20:59:04",1
"20/10/26","21:10",0.0,10.7,88.5,1014.0,307.5,1.1,2.0,338.4,0.00,8.9,16.1,"21:08:00",1
"20/10/26","21:20",0.0,10.5,88.9,1014.5,320.1,1.0,2.0,316.5,0.00,8.8,15.9,"21:16:24",1
"20/10/26","21:30",0.0,10.3,89.3,1014.0,303.8,1.2,1.8,323.8,0.00,8.7,15.8,"21:24:48",1
"20/10/26","21:40",0.0,10.6,89.8,1014.2,316.7,1.1,2.1,314.6,0.00,9.0,15.9,"21:33:54",1
"20/10/26","21:50",0.0,11.0,90.0,1014.0,319.1,1.2,1.8,330.5,0.00,9.5,15.7,"21:47:02",1
"20/10/26","22:00",0.0,10.8,90.2,1014.0,307.8,1.2,2.4,318.3,0.00,9.3,15.8,"21:58:08",1
"20/10/26","22:10",0.0,10.9,90.4,1014.0,298.4,1.5,2.4,307.6,0.00,9.4,15.6,"22:01:20",1
"20/10/26","22:20",0.0,10.8,90.7,1014.0,299.2,1.3,2.4,320.1,0.00,9.4,15.6,"22:18:48",1
"20/10/26","22:30",0.0,10.8,90.9,1014.0,315.5,1.6,2.9,342.5,0.00,9.4,15.4,"22:28:40",1
"20/10/26","22:40",0.0,10.9,91.2,1014.0,313.1,1.6,2.8,320.5,0.00,9.6,15.5,"22:37:04",1
"20/10/26","22:50",0.0,11.0,91.3,1013.8,303.5,1.6,2.2,325.7,0.00,9.7,15.5,"22:48:40",1
"20/10/26","23:00",0.0,11.4,91.3,1014.2,320.8,2.0,3.7,335.5,0.00,10.1,15.4,"22:57:12",1
"20/10/26","23:10",0.0,11.5,91.0,1014.2,327.1,2.1,3.5,333.9,0.00,10.1,15.2,"23:04:56",1
"20/10/26","23:20",0.0,11.4,91.0,1014.2,326.9,2.1,3.3,329.8,0.00,10.0,15.3,"23:14:00",1
"20/10/26","23:30",0.0,11.4,90.9,1014.0,326.4,2.3,3.6,328.0,0.00,10.0,15.2,"23:23:04",1
"20/10/26","23:40",0.0,11.5,90.7,1014.2,322.9,2.1,3.1,330.5,0.00,10.1,15.4,"23:30:24",1
"20/10/26","23:50",0.0,11.4,90.5,1014.2,326.3,1.8,3.4,338.4,0.00,9.9,15.4,"23:49:02",1
"20/10/26","24:00",0.0,11.2,90.5,1014.2,328.6,2.1,4.4,337.5,0.00,9.7,15.2,"23:59:52",1
